Location: Sungai Apap
(2.6167°N, 113.3833°E)
Time: 15:49:10
(UTC+00:00)

CBERS-1 - Pass Details

Date: 25 May 2024
Orbit: 767 x 774 km, 98.8° (Epoch: 12 June)

Event Time Altitude Azimuth Distance (km) Brightness Sun altitude
Rises 20:25:46 0° 14° (NNE) 3,227 7.8 -26.2°
Reaches altitude 10° 20:28:04 10° 15° (NNE) 2,304 6.9 -25.7°
Maximum altitude 20:33:09 84° 102° (ESE) 779 3.9 -24.5°
Enters shadow 20:34:41 46° 186° (S) 1,022 4.4 -24.2°
